Regional Weather Roundup
Issued by NWS

Home | Current Version | Previous Version | Text Only | Print | Product List | Glossary Off
Versions: 1 2 3 4 5 6 7 8 9 10 11 12 13 14 15 16 17 18 19 20 21 22 23 24 25 26 27 28 29 30 31 32 33 34 35 36 37 38 39 40 41 42 43 44 45 46 47 48 49 50

000
ASUS45 KABQ 170110
RWRNM
NEW MEXICO REGIONAL WEATHER ROUNDUP
NATIONAL WEATHER SERVICE ALBUQUERQUE NM
600 PM MST FRI FEB 16 2018

NOTE: "FAIR" MEANS FEW OR NO CLOUDS BELOW 12,000 FEET AGL WITH NO
       SIGNIFICANT WEATHER OR OBSTRUCTIONS TO VISION.

      THIS PRODUCT IS RELEASED AS TWO VERSIONS.  ONE VERSION NEAR
      THE TOP OF THE HOUR CONTAINING PRELIMINARY DATA FROM ALBUQUERQUE
      AND OTHER STATIONS.  A FINAL VERSION WITH ADDITIONAL DATA IS
      ISSUED ABOUT 10 MINUTES AFTER THE HOUR.

NMZ501-503-504-510>518-170200-
NORTHWEST PLATEAU/NORTHCENTRAL MOUNTAINS

CITY           SKY/WX    TMP DP  RH WIND       PRES   REMARKS
FARMINGTON     FAIR      42  20  41 W5        30.11R
LOS ALAMOS     FAIR      36  29  76 S6        30.11F WCI  31
SANTA FE       FAIR      36  32  85 SE7       30.11S WCI  30
TAOS           FAIR      37  26  64 SW7       30.11F WCI  32
ANGEL FIRE     FAIR      32  23  70 W15G24    30.06F WCI  21

$$
NMZ402-403-502-505>509-170200-
WESTCENTRAL MOUNTAINS/SOUTHWEST MOUNTAINS

CITY           SKY/WX    TMP DP  RH WIND       PRES   REMARKS
GALLUP         FAIR      42  32  67 CALM      30.11F
GRANTS         CLOUDY    42  31  65 SE6       30.12S
SILVER CITY    LGT RAIN  46  44  90 N7        30.11S

$$
NMZ407-409-411-412-170200-
SOUTHERN DESERTS

CITY           SKY/WX    TMP DP  RH WIND       PRES   REMARKS
DEMING         NOT AVBL
LAS CRUCES     LGT SNOW  47  47 100 N18G24    30.08R
HOLLOMAN AFB   LGT RAIN  48  48 100 NW15      30.09R
ALAMOGORDO     LGT RAIN  48  48 100 N12       30.07R
T OR C         LGT RAIN  45  44  97 N6        30.12R

$$
NMZ519>523-170200-
CENTRAL VALLEYS/CENTRAL HIGHLANDS

CITY           SKY/WX    TMP DP  RH WIND       PRES   REMARKS
ALBUQUERQUE    CLOUDY    45  33  63 S6        30.11S
DOUBLE EAGLE   CLOUDY    43  34  70 VRB5      30.12S
MORIARTY ARPT  CLOUDY    37  35  90 CALM      30.13F
CLINES CORNERS CLOUDY    34  31  88 SW12      30.11F WCI  25
BELEN          CLOUDY    43  36  76 SE3       30.12S
SOCORRO        DRIZZLE   43  41  93 S6        30.11S

$$
NMZ524>526-539-540-170200-
SOUTHCENTRAL MOUNTAINS

CITY           SKY/WX    TMP DP  RH WIND       PRES   REMARKS
RUIDOSO        NOT AVBL

$$
NMZ527>531-170200-
NORTHEAST HIGHLANDS/NORTHEAST PLAINS

CITY           SKY/WX    TMP DP  RH WIND       PRES   REMARKS
LAS VEGAS      FAIR      34  28  79 S22G29    30.03F WCI  22
RATON          FAIR      36  22  56 SW8       29.98F WCI  30
CLAYTON        FAIR      37  23  56 S20       30.01F WCI  27

$$
NMZ532>537-170200-
EASTCENTRAL PLAINS

CITY           SKY/WX    TMP DP  RH WIND       PRES   REMARKS
SANTA ROSA     CLOUDY    36  33  90 S10       30.09F WCI  28
TUCUMCARI      CLOUDY    42  31  64 S23       30.05F
CANNON AFB     LGT RAIN  37  37 100 S8        30.17S WCI  31
CLOVIS AIRPORT LGT RAIN  37  35  92 SW8       30.17R WCI  31

$$
NMZ028-029-538-170200-
SOUTHEAST PLAINS

CITY           SKY/WX    TMP DP  RH WIND       PRES   REMARKS
ROSWELL        CLOUDY    44  41  89 N7        30.13F
ARTESIA        FAIR      48  36  61 N9        30.12F
CARLSBAD       MOCLDY    54  29  38 SE9       30.11F
HOBBS          PTCLDY    48  23  37 E9        30.15S


$$




USA.gov is the U.S. government's official web portal to all federal, state and local government web resources and services.